This demonstration page uses our WeatherBlox Daily Observations layout. Learn more.

Left ArrowRight Arrow

Hourly Observations for September 30, 2016

Temp ( °F °C ) Dew Point ( °F °C ) Humidity (%) Winds ( mph kmh ) Pressure ( in mb ) Visibility ( mi km ) Precip ( " mm )
12:51 am 00:51 Mostly Cloudy 67 19.4 60 15.6 79 79 ESE 8 13 30.06 1018 10 16.0934 0 0.0254
1:51 am 01:51 Clear 66 18.9 61 16.1 84 84 SSE 8 13 30.06 1018 10 16.0934 0 0
2:51 am 02:51 Clear 65 18.3 60 15.6 84 84 SSE 10 17 30.06 1018 10 16.0934 0 0
3:51 am 03:51 Clear 63 17.2 61 16.1 93 93 SE 7 11 30.07 1018 10 16.0934 0 0
4:51 am 04:51 Clear 63 17.2 59 15 87 87 ESE 8 13 30.06 1018 10 16.0934 0 0
5:51 am 05:51 Clear 62 16.7 59 15 90 90 SE 10 17 30.1 1019 10 16.0934 0 0
6:51 am 06:51 Sunny 64 17.8 59 15 84 84 SE 9 15 30.11 1020 10 16.0934 0 0
7:51 am 07:51 Sunny 68 20 60 15.6 76 76 SE 8 13 30.12 1020 10 16.0934 0 0
8:51 am 08:51 Sunny 72 22.2 60 15.6 66 66 E 10 17 30.1 1019 10 16.0934 0 0
9:51 am 09:51 Mostly Sunny 73 22.8 60 15.6 64 64 SE 8 13 30.1 1019 10 16.0934 0 0
10:07 am 10:07 Mostly Cloudy 74 23.3 60 15.6 62 62 E 7 11 30.06 1018 10 16.0934 0 0
10:16 am 10:16 Partly Cloudy 74 23.3 60 15.6 62 62 ESE 3 6 30.06 1018 10 16.0934 0 0
10:51 am 10:51 Sunny 76 24.4 60 15.6 58 58 ESE 6 9 30.07 1018 10 16.0934 0 0
11:51 am 11:51 Sunny 79 26.1 59 15 50 50 ESE 9 15 30.04 1017 10 16.0934 0 0
12:51 pm 12:51 Sunny 80 26.7 58 14.4 47 47 ESE 3 6 30 1016 10 16.0934 0 0
1:51 pm 13:51 Sunny 82 27.8 57 13.9 42 42 SE 8 13 29.96 1015 10 16.0934 0 0
2:51 pm 14:51 Sunny 82 27.8 57 13.9 42 42 Calm 29.93 1014 10 16.0934 0 0
3:51 pm 15:51 Sunny 81 27.2 57 13.9 44 44 VRB 3 6 29.92 1013 10 16.0934 0 0
4:48 pm 16:48 Partly Cloudy with Nearby Thunderstorms 81 27 57 14 45 45 SW 6 9 29.85 1011 10 16.0934 0 0
4:51 pm 16:51 Partly Cloudy with Nearby Thunderstorms 81 27.2 58 14.4 45 45 S 10 17 29.94 1014 10 16.0934 0 0
5:02 pm 17:02 Mostly Cloudy 77 25 56 13.3 48 48 SW 13 20 29.88 1012 10 16.0934 0 0
5:18 pm 17:18 Mostly Cloudy 78 25.6 51 10.6 39 39 SW 12 19 29.85 1011 10 16.0934 0 0.0254
5:51 pm 17:51 Sunny 76 24.4 50 10 40 40 WNW 10 17 29.95 1014 10 16.0934 0 0.0254
6:51 pm 18:51 Clear 75 23.9 53 11.7 46 46 N 9 15 29.93 1014 10 16.0934 0 0
7:51 pm 19:51 Clear 71 21.7 56 13.3 59 59 WSW 7 11 29.95 1014 10 16.0934 0 0
8:51 pm 20:51 Clear 74 23.3 52 11.1 46 46 Calm 29.94 1014 10 16.0934 0 0
9:51 pm 21:51 Clear 70 21.1 56 13.3 61 61 Calm 29.96 1015 10 16.0934 0 0
10:51 pm 22:51 Clear 68 20 57 13.9 68 68 Calm 29.97 1015 10 16.0934 0 0.0254
11:51 pm 23:51 Mostly Clear 66 18.9 58 14.4 75 75 Calm 29.97 1015 10 16.0934 0 0

Powered by AerisWeather